Change the Weather History Date:

Friday, April 19, 2013

  Actual Average Record
Temperature  
Mean Temperature 52 °F -  
Max Temperature 55 °F 56 °F 73 °F (1956)
Min Temperature 48 °F 37 °F 28 °F (1966)
Degree Days  
Heating Degree Days 14    
Growing Degree Days 2 (Base 50)    
Moisture  
Dew Point 50 °F    
Average Humidity 96    
Maximum Humidity 100    
Minimum Humidity 82    
Precipitation  
Precipitation 0.47 in - - ()
Sea Level Pressure  
Sea Level Pressure 30.15 in    
Wind  
Wind Speed 9 mph (SSW)    
Max Wind Speed 15 mph    
Max Gust Speed 20 mph    
Visibility 9 miles    
Events Rain    
Averages and records for this station are not official NWS values.
T = Trace of Precipitation, MM = Missing Value Source: NWS Daily Summary

Daily Weather History Graph

Daily Weather History Graph

Search for Another Location

Airport or City:

Trip Planner

Search our weather history database for the weather conditions in past years. The results will help you decide how hot, cold, wet, or windy it might be!

Date:

Astronomy

Apr. 19, 2013 Rise Set
Actual Time 6:13 AM PDT 8:04 PM PDT
Civil Twilight 5:41 AM PDT 8:37 PM PDT
Nautical Twilight 5:01 AM PDT 9:17 PM PDT
Astronomical Twilight 4:17 AM PDT 10:01 PM PDT
Moon 1:31 PM PDT (4/19) 2:57 AM PDT (4/19)
Length of Visible Light 14h 56m
Length of Day
13h 50m
Waxing Gibbous, 62% of the Moon is Illuminated
Apr 19
Waxing Gibbous
Apr 25
Full
May 2
Last Quarter
May 9
New
May 17
First Quarter

Hourly Weather History & Observations

Time (PDT) Temp. Dew Point Humidity Pressure Visibility Wind Dir Wind Speed Gust Speed Precip Events Conditions
12:02 AM 50.0 °F 48.2 °F 94% 30.25 in 10.0 mi South 8.1 mph - N/A Rain Light Rain
12:22 AM 50.0 °F 48.2 °F 94% 30.24 in 10.0 mi South 6.9 mph - N/A Rain Light Rain
12:32 AM 48.2 °F 48.2 °F 100% 30.23 in 10.0 mi South 8.1 mph - N/A   Overcast
12:52 AM 50.0 °F 48.2 °F 94% 30.23 in 10.0 mi South 8.1 mph - N/A   Overcast
12:58 AM 49.1 °F 48.6 °F 98% 30.25 in 10.0 mi South 8.1 mph - 0.01 in   Overcast
1:01 AM 48.2 °F 48.2 °F 100% 30.23 in 10.0 mi South 8.1 mph - N/A Rain Light Rain
1:06 AM 48.2 °F 48.2 °F 100% 30.22 in 10.0 mi South 8.1 mph - N/A Rain Light Rain
1:16 AM 48.2 °F 48.2 °F 100% 30.22 in 10.0 mi South 8.1 mph - N/A Rain Light Rain
1:17 AM 48.2 °F 48.2 °F 100% 30.22 in 10.0 mi South 8.1 mph - N/A   Overcast
1:47 AM 48.2 °F 48.2 °F 100% 30.21 in 10.0 mi South 8.1 mph - N/A   Overcast
1:58 AM 48.7 °F 48.6 °F 99% 30.23 in 10.0 mi South 9.2 mph - 0.00 in   Overcast
2:13 AM 48.2 °F 48.2 °F 100% 30.20 in 10.0 mi South 11.5 mph - N/A   Overcast
2:23 AM 50.0 °F 48.2 °F 94% 30.20 in 10.0 mi South 9.2 mph - N/A   Overcast
2:33 AM 48.2 °F 48.2 °F 100% 30.19 in 10.0 mi South 9.2 mph - N/A   Overcast
2:36 AM 48.2 °F 48.2 °F 100% 30.19 in 10.0 mi South 8.1 mph - N/A Rain Light Rain
2:41 AM 48.2 °F 48.2 °F 100% 30.19 in 10.0 mi South 10.4 mph - N/A Rain Light Rain
2:46 AM 48.2 °F 48.2 °F 100% 30.18 in 10.0 mi South 9.2 mph - N/A Rain Light Rain
2:48 AM 48.2 °F 48.2 °F 100% 30.18 in 10.0 mi South 10.4 mph - N/A   Overcast
2:58 AM 48.9 °F 48.7 °F 99% 30.19 in 10.0 mi South 10.4 mph - 0.00 in   Overcast
3:00 AM 48.2 °F 48.2 °F 100% 30.18 in 10.0 mi South 9.2 mph - N/A Rain Light Rain
3:24 AM 48.2 °F 48.2 °F 100% 30.16 in 10.0 mi South 10.4 mph - N/A   Overcast
3:34 AM 48.2 °F 48.2 °F 100% 30.16 in 10.0 mi South 9.2 mph - N/A   Overcast
3:58 AM 48.9 °F 48.7 °F 99% 30.18 in 10.0 mi South 9.2 mph - 0.00 in   Overcast
4:03 AM 50.0 °F 48.2 °F 94% 30.15 in 10.0 mi South 10.4 mph - N/A   Overcast
4:58 AM 49.6 °F 48.2 °F 95% 30.14 in 10.0 mi South 11.5 mph - N/A   Overcast
5:01 AM 50.0 °F 48.2 °F 94% 30.13 in 10.0 mi South 11.5 mph - N/A Rain Light Rain
5:14 AM 50.0 °F 48.2 °F 94% 30.12 in 10.0 mi SSW 11.5 mph - N/A   Overcast
5:19 AM 50.0 °F 48.2 °F 94% 30.12 in 10.0 mi SSW 12.7 mph - N/A   Overcast
5:42 AM 50.0 °F 48.2 °F 94% 30.12 in 10.0 mi SSW 11.5 mph - N/A Rain Light Rain
5:58 AM 49.5 °F 48.4 °F 96% 30.14 in 10.0 mi SSW 8.1 mph - 0.00 in Rain Light Rain
6:58 AM 48.9 °F 48.6 °F 99% 30.13 in 10.0 mi South 5.8 mph - 0.04 in Rain Light Rain
7:08 AM 48.2 °F 48.2 °F 100% 30.10 in 10.0 mi South 6.9 mph - N/A Rain Light Rain
7:13 AM 48.2 °F 48.2 °F 100% 30.10 in 10.0 mi South 5.8 mph - N/A Rain Light Rain
7:18 AM 48.2 °F 48.2 °F 100% 30.10 in 10.0 mi South 6.9 mph - N/A Rain Light Rain
7:23 AM 48.2 °F 48.2 °F 100% 30.10 in 9.0 mi South 8.1 mph - N/A Rain Light Rain
7:53 AM 48.2 °F 48.2 °F 100% 30.09 in 8.0 mi South 10.4 mph - N/A Rain Light Rain
7:58 AM 48.9 °F 48.7 °F 99% 30.11 in 9.0 mi South 10.4 mph - 0.06 in Rain Light Rain
8:18 AM 50.0 °F 48.2 °F 94% 30.09 in 9.0 mi South 8.1 mph - N/A Rain Light Rain
8:58 AM 49.1 °F 48.9 °F 99% 30.10 in 6.0 mi South 9.2 mph - 0.12 in Rain Light Rain
9:13 AM 50.0 °F 48.2 °F 94% 30.08 in 9.0 mi South 8.1 mph - N/A Rain Light Rain
9:23 AM 50.0 °F 50.0 °F 100% 30.08 in 10.0 mi South 6.9 mph - N/A Rain Light Rain
9:58 AM 50.2 °F 50.0 °F 99% 30.10 in 8.0 mi South 10.4 mph - 0.05 in Rain Light Rain
10:19 AM 50.0 °F 50.0 °F 100% 30.08 in 5.0 mi South 10.4 mph - N/A Rain Light Rain
10:24 AM 50.0 °F 50.0 °F 100% 30.09 in 5.0 mi South 9.2 mph - N/A Rain Light Rain
10:29 AM 50.0 °F 50.0 °F 100% 30.09 in 6.0 mi South 8.1 mph - N/A Rain Light Rain
10:54 AM 51.8 °F 51.8 °F 100% 30.09 in 8.0 mi SSW 8.1 mph - N/A Rain Light Rain
10:58 AM 51.3 °F 51.1 °F 99% 30.11 in 7.0 mi SSW 12.7 mph - 0.07 in Rain Light Rain
11:03 AM 51.8 °F 50.0 °F 94% 30.10 in 7.0 mi SSW 10.4 mph - N/A Rain Light Rain
11:13 AM 51.8 °F 51.8 °F 100% 30.10 in 9.0 mi SSW 12.7 mph - N/A Rain Light Rain
11:23 AM 51.8 °F 51.8 °F 100% 30.10 in 4.0 mi SSW 9.2 mph - N/A Rain Light Rain
11:26 AM 51.8 °F 51.8 °F 100% 30.10 in 4.0 mi SSW 9.2 mph - N/A Rain Light Rain
11:56 AM 51.8 °F 51.8 °F 100% 30.10 in 9.0 mi SSW 12.7 mph - N/A Rain Light Rain
11:58 AM 51.8 °F 51.4 °F 99% 30.12 in 9.0 mi SSW 10.4 mph - 0.06 in Rain Light Rain
12:08 PM 51.8 °F 51.8 °F 100% 30.10 in 9.0 mi SSW 12.7 mph - N/A Rain Light Rain
12:13 PM 51.8 °F 51.8 °F 100% 30.10 in 9.0 mi SSW 12.7 mph - N/A Rain Light Rain
12:48 PM 53.6 °F 51.8 °F 94% 30.11 in 10.0 mi SSW 10.4 mph - N/A Rain Light Rain
12:58 PM 53.6 °F 51.8 °F 94% 30.13 in 10.0 mi SW 12.7 mph - 0.02 in Rain Light Rain
1:03 PM 53.6 °F 51.8 °F 94% 30.11 in 10.0 mi SSW 11.5 mph - N/A Rain Light Rain
1:38 PM 53.6 °F 51.8 °F 94% 30.11 in 7.0 mi WSW 9.2 mph - N/A Rain Light Rain
1:44 PM 53.6 °F 51.8 °F 94% 30.12 in 9.0 mi SW 12.7 mph - N/A   Overcast
1:54 PM 53.6 °F 51.8 °F 94% 30.12 in 10.0 mi SW 10.4 mph - N/A   Overcast
1:58 PM 53.8 °F 52.2 °F 94% 30.14 in 10.0 mi SW 8.1 mph - 0.00 in   Overcast
2:03 PM 55.4 °F 53.6 °F 94% 30.12 in 10.0 mi SW 8.1 mph - N/A   Overcast
2:13 PM 55.4 °F 51.8 °F 88% 30.12 in 10.0 mi SW 8.1 mph - N/A Rain Light Rain
2:22 PM 53.6 °F 51.8 °F 94% 30.12 in 10.0 mi SW 9.2 mph - N/A   Overcast
2:25 PM 53.6 °F 51.8 °F 94% 30.12 in 9.0 mi SW 9.2 mph - N/A   Overcast
2:26 PM 53.6 °F 51.8 °F 94% 30.12 in 8.0 mi SW 9.2 mph - N/A Rain Light Rain
2:41 PM 53.6 °F 51.8 °F 94% 30.13 in 4.0 mi SW 9.2 mph - N/A Rain Light Rain
2:42 PM 53.6 °F 51.8 °F 94% 30.13 in 4.0 mi SW 9.2 mph - N/A Rain Light Rain
2:52 PM 53.6 °F 51.8 °F 94% 30.13 in 3.0 mi SSW 9.2 mph - N/A Rain Light Rain
2:53 PM 53.6 °F 51.8 °F 94% 30.13 in 4.0 mi SW 8.1 mph - N/A   Overcast
2:58 PM 52.7 °F 52.5 °F 99% 30.14 in 4.0 mi SW 9.2 mph - 0.02 in   Overcast
2:59 PM 53.6 °F 51.8 °F 94% 30.13 in 4.0 mi SW 9.2 mph - N/A Rain Light Rain
3:14 PM 53.6 °F 51.8 °F 94% 30.13 in 8.0 mi SW 8.1 mph - N/A Rain Light Rain
3:19 PM 53.6 °F 53.6 °F 100% 30.13 in 10.0 mi SW 5.8 mph - N/A Rain Light Rain
3:24 PM 53.6 °F 53.6 °F 100% 30.13 in 8.0 mi WSW 5.8 mph - N/A Rain Light Rain
3:29 PM 53.6 °F 53.6 °F 100% 30.13 in 6.0 mi WSW 5.8 mph - N/A Rain Light Rain
3:34 PM 53.6 °F 53.6 °F 100% 30.13 in 8.0 mi SW 8.1 mph - N/A Rain Light Rain
3:39 PM 53.6 °F 53.6 °F 100% 30.13 in 10.0 mi SW 6.9 mph - N/A Rain Light Rain
3:40 PM 53.6 °F 53.6 °F 100% 30.13 in 10.0 mi SW 8.1 mph - N/A   Overcast
3:45 PM 53.6 °F 53.6 °F 100% 30.13 in 10.0 mi SW 6.9 mph - N/A   Overcast
3:50 PM 53.6 °F 53.6 °F 100% 30.13 in 10.0 mi WSW 8.1 mph - N/A   Overcast
3:58 PM 53.6 °F 51.8 °F 94% 30.14 in 10.0 mi WSW 9.2 mph - 0.02 in   Overcast
4:13 PM 53.6 °F 51.8 °F 94% 30.13 in 10.0 mi WSW 10.4 mph - N/A   Overcast
4:33 PM 53.6 °F 51.8 °F 94% 30.14 in 10.0 mi WSW 10.4 mph - N/A   Overcast
4:58 PM 53.8 °F 50.4 °F 88% 30.14 in 10.0 mi WSW 11.5 mph - N/A   Overcast
5:38 PM 51.8 °F 50.0 °F 94% 30.14 in 10.0 mi SW 8.1 mph - N/A   Overcast
5:58 PM 52.2 °F 49.6 °F 91% 30.17 in 10.0 mi SSW 12.7 mph - N/A   Overcast
6:18 PM 51.8 °F 50.0 °F 94% 30.15 in 10.0 mi SSW 9.2 mph - N/A   Overcast
6:23 PM 51.8 °F 48.2 °F 88% 30.15 in 10.0 mi South 8.1 mph - N/A   Overcast
6:33 PM 51.8 °F 50.0 °F 94% 30.16 in 10.0 mi SSW 9.2 mph - N/A   Overcast
6:43 PM 51.8 °F 48.2 °F 88% 30.16 in 10.0 mi WSW 12.7 mph 19.6 mph N/A   Overcast
6:58 PM 52.2 °F 48.0 °F 86% 30.18 in 10.0 mi SW 8.1 mph - N/A   Overcast
7:33 PM 51.8 °F 46.4 °F 82% 30.16 in 10.0 mi SW 9.2 mph - N/A   Overcast
7:43 PM 51.8 °F 46.4 °F 82% 30.16 in 10.0 mi SSW 12.7 mph - N/A   Overcast
7:48 PM 50.0 °F 46.4 °F 87% 30.17 in 10.0 mi SSW 13.8 mph - N/A   Overcast
7:58 PM 50.7 °F 46.4 °F 85% 30.19 in 10.0 mi SSW 10.4 mph - N/A   Overcast
8:03 PM 50.0 °F 46.4 °F 87% 30.17 in 10.0 mi SSW 9.2 mph - N/A   Overcast
8:38 PM 50.0 °F 46.4 °F 87% 30.19 in 10.0 mi SW 11.5 mph - N/A   Overcast
8:58 PM 49.3 °F 45.9 °F 88% 30.22 in 10.0 mi SW 15.0 mph - N/A   Overcast
9:03 PM 48.2 °F 46.4 °F 93% 30.20 in 10.0 mi SW 11.5 mph - N/A   Overcast
9:38 PM 48.2 °F 46.4 °F 93% 30.21 in 10.0 mi SW 11.5 mph - N/A   Overcast
9:43 PM 48.2 °F 46.4 °F 93% 30.21 in 10.0 mi SW 12.7 mph - N/A   Overcast
9:48 PM 48.2 °F 46.4 °F 93% 30.21 in 10.0 mi SW 9.2 mph - N/A   Overcast
9:58 PM 48.7 °F 46.0 °F 90% 30.23 in 10.0 mi SSW 9.2 mph - N/A   Overcast
10:58 PM 48.4 °F 45.9 °F 91% 30.24 in 10.0 mi SSW 10.4 mph - N/A   Overcast
11:58 PM 48.0 °F 45.5 °F 91% 30.25 in 10.0 mi SSW 10.4 mph - N/A   Overcast